Location: Sedan
(39.2354°N, 78.5718°W)
Time: 21:03:00
(UTC+00:00)

WORLDVIEW 2 - Pass Details

Date: 18 August 2022
Orbit: 764 x 767 km, 98.5° (Epoch: 05 October)

Event Time Altitude Azimuth Distance (km) Brightness Sun altitude
Exits shadow 02:06:08 19° 66° (ENE) 1,759 6.6 -21.1°
Maximum altitude 02:06:15 19° 64° (ENE) 1,759 6.6 -21.2°
Drops below altitude 10° 02:09:46 10° 20° (NNE) 2,314 7.7 -21.7°
Sets 02:12:40 0° 3° (N) 3,245 8.8 -22.1°
